Location: York
(31.8935°S, 116.7682°E)
Time: 08:24:50
(UTC+08:00)

N. Korean satellite - Pass Details

Date: 17 May 2021
Orbit: 450 x 500 km, 97.2° (Epoch: 16 June)

Event Time Altitude Azimuth Distance (km) Brightness Sun altitude
Rises 17:53:14 0° 179° (S) 2,629 10.1 -6.9°
Reaches altitude 10° 17:55:26 10° 187° (S) 1,736 9.3 -7.3°
Maximum altitude 17:58:55 38° 255° (WSW) 795 8.2 -8.0°
Drops below altitude 10° 18:02:20 10° 323° (NW) 1,708 10.2 -8.7°
Sets 18:04:29 0° 331° (NNW) 2,578 11.0 -9.1°
